Regional Weather Roundup
Issued by NWS Green Bay, WI

Home | Current Version | Previous Version | Graphics & Text | Print | Product List | Glossary Off
Versions: 1 2 3 4 5 6 7 8 9 10 11 12 13 14 15 16 17 18 19 20 21 22 23 24 25 26 27 28 29 30 31 32 33 34 35 36 37 38 39 40 41 42 43 44 45 46 47 48 49 50

000
ASUS43 KGRB 201800
RWRGRB

NORTH-CENTRAL AND NORTHEAST WISCONSIN REGIONAL WEATHER ROUNDUP
NATIONAL WEATHER SERVICE GREEN BAY WI
1200 PM CST FRI JAN 20 2017

WIZ005-009-010>012-018-019-201900-
NORTH CENTRAL WISCONSIN

CITY           SKY/WX    TMP DP  RH WIND       PRES   REMARKS
IRONWOOD       CLOUDY    37  31  78 E6        29.66F
MANITOWISH WTR NOT AVBL
ARBOR VITAE    NOT AVBL
EAGLE RIVER    NOT AVBL
LAND O LAKES   NOT AVBL
RHINELANDER    CLOUDY    35  35 100 E3        29.65F FOG
PHILLIPS       DRIZZLE   36  36  98 SE5       29.62F
ANTIGO         NOT AVBL
TOMAHAWK       NOT AVBL
MERRILL        DRIZZLE   36  35  97 SE3         N/A
$$

WIZ013-073-201900-
NORTHEAST WISCONSIN

CITY           SKY/WX    TMP DP  RH WIND       PRES   REMARKS
IRON MOUNTAIN  CLOUDY    32  30  92 CALM      29.66F FOG
MARINETTE      NOT AVBL
$$

WIZ017-030-035>037-045-201900-
CENTRAL WISCONSIN

CITY           SKY/WX    TMP DP  RH WIND       PRES   REMARKS
MEDFORD        NOT AVBL
WAUSAU         CLOUDY    35  34  96 E6        29.63F
MOSINEE        DRIZZLE   28  28 100 E8        29.65F
MARSHFIELD     LGT RAIN  34  32  92 E10       29.61F FOG
WISC RAPIDS    LGT RAIN  35  34  96 E8        29.64F FOG
STEVENS POINT  NOT AVBL
WAUPACA        NOT AVBL
SHAWANO        NOT AVBL
CLINTONVILLE   LGT RAIN  34  34 100 E5        29.68F
WAUTOMA        LGT RAIN  35  34  96 NE10      29.65F FOG
$$

WIZ038-039-048-051-201900-
FOX VALLEY

CITY           SKY/WX    TMP DP  RH WIND       PRES   REMARKS
NWS GREEN BAY  LGT RAIN  35  35 100 NE9       29.68F VSB 3/4
APPLETON       DRIZZLE   34  34 100 NE6       29.66F FOG
OSHKOSH        CLOUDY    35  33  92 NE6       29.66F FOG
FOND DU LAC    CLOUDY    37  34  89 E7        29.66F
$$

WIZ022-050-052-201900-
EAST CENTRAL WISCONSIN

CITY           SKY/WX    TMP DP  RH WIND       PRES   REMARKS
EPHRAIM        NOT AVBL
WASHINGTON ISL NOT AVBL
STURGEON BAY   FOG       35  35 100 N6        29.69F VSB 1/2
MANITOWOC      NOT AVBL
SHEBOYGAN      CLOUDY    36  35  96 NE8       29.67F FOG
$$

LMZ563-521-522-541>543-201900-
LAKESHORE

STATION/POSITION TIME  TEMP    WIND        PRES    VSBY  WAVE
                       AIR SEA DIR/SP/G                  HT/PER
                 (UTC) (F)     (DEG/KT/KT) (MB)    (MI)  (FT/S)
SHEBOYGAN LKSHOR 1700   35      20/  9/  9 1005.5F
KEWAUNEE LKSHORE 1730   35      20/  6/  9 1005.0F
NORTHPORT PIER   1740   33      70/  7/  9 1006.1F
SISTER BAY LKSHO 1720   37      30/  2/  7   N/A
$$




USA.gov is the U.S. government's official web portal to all federal, state and local government web resources and services.